Flag for Australia Weather past 2 weeks in Sydney, New South Wales, Australia

Now
52 °F

Clear.


Feels Like: 51 °F
Forecast: 54 / 69 °F
Wind: 5 mph from Northwest

Location: Sydney Airport

Current Time: Jul 25, 2014 at 3:59:29 AM

Latest Report: Jul 25, 2014 at 3:00 AM


Visibility: 10 mi

Pressure: 30.12 "Hg

Humidity: 82%

Dew point: 46 °F

Location of SydneyLocation

Historic Weather in Sydney — Graph

°F

Sydney temperature yesterday

Maximum temperature yesterday: 68 °F (at 3:00 PM)
Minimum temperature yesterday: 46 °F (at 5:00 AM)
Average temperature yesterday: 57 °F

Past Weeks' High & Low Weather Summary

 TemperatureHumidityPressure
High68 °F (Jul 17, 12:30 PM)100% (Jul 14, 11:00 PM)30.48 "Hg (Jul 14, 11:00 PM)
Low43 °F (Jul 12, 5:30 AM)26% (Jul 17, 3:00 PM)29.62 "Hg (Jul 10, 2:00 AM)
Average55 °F62%30.11 "Hg
* Reported Jul 10 2:00 AM — Jul 25 2:30 AM, Sydney, Weather by CustomWeather, © 2014

Note: Actual official high and low records may vary slightly from our data, if they occured in-between our weather recording intervals... More about our weather records

Advertising

Sydney weather history for previous 24 hours

 ConditionsComfort  
Time TempWeatherWind HumidityBarometerVisibility
2:30 AM
Jul 25
52 °FClear.6 mph82%30.12 "Hg10 mi
2:00 AM52 °FClear.7 mph82%30.12 "Hg10 mi
1:30 AM54 °FScattered showers. Clear.6 mph82%30.09 "HgN/A
1:00 AM54 °FClear.8 mph82%30.09 "Hg10 mi
12:30 AM55 °FSprinkles. Clear.6 mph77%30.09 "HgN/A
12:00 AM55 °FClear.5 mph77%30.09 "Hg10 mi
11:30 PM
Jul 24
55 °FClear.5 mph72%30.12 "Hg10 mi
11:00 PM55 °FClear.6 mph77%30.12 "Hg10 mi
10:30 PM57 °FClear.7 mph72%30.12 "Hg10 mi
10:00 PM59 °FClear.6 mph68%30.12 "Hg10 mi
9:30 PM61 °FClear.6 mph63%30.12 "Hg10 mi
9:00 PM61 °FClear.7 mph59%30.12 "Hg10 mi
8:30 PM61 °FClear.8 mph59%30.12 "Hg10 mi
8:00 PM61 °FClear.8 mph59%30.12 "Hg10 mi
7:30 PM61 °FClear.10 mph59%30.12 "Hg10 mi
7:00 PM63 °FClear.10 mph56%30.09 "Hg10 mi
6:30 PM63 °FClear.12 mph56%30.09 "Hg10 mi
6:00 PM63 °FClear.9 mph56%30.09 "Hg10 mi
5:30 PM64 °FClear.8 mph49%30.09 "Hg10 mi
5:00 PM64 °FClear.10 mph49%30.09 "Hg10 mi
4:30 PM64 °FClear.12 mph46%30.09 "Hg10 mi
4:00 PM66 °FBroken clouds.10 mph46%30.09 "HgN/A
3:30 PM66 °FBroken clouds.10 mph43%30.07 "HgN/A
3:00 PM68 °FBroken clouds.9 mph43%30.07 "HgN/A
2:30 PM66 °FBroken clouds.9 mph46%30.07 "HgN/A
2:00 PM63 °FBroken clouds.5 mph56%30.09 "HgN/A
1:30 PM63 °FBroken clouds.6 mph59%30.09 "HgN/A
1:00 PM61 °FBroken clouds.7 mph63%30.12 "HgN/A
12:30 PM59 °FBroken clouds.6 mph68%30.12 "HgN/A
12:00 PM61 °FBroken clouds.7 mph63%30.15 "HgN/A
11:30 AM61 °FBroken clouds.6 mph63%30.15 "HgN/A
11:00 AM59 °FBroken clouds.7 mph68%30.18 "HgN/A
10:30 AM59 °FBroken clouds.7 mph68%30.18 "HgN/A
10:00 AM57 °FBroken clouds.8 mph72%30.18 "HgN/A
9:30 AM57 °FBroken clouds.9 mph67%30.18 "HgN/A
9:00 AM57 °FScattered clouds.6 mph67%30.18 "HgN/A
8:30 AM54 °FScattered clouds.7 mph77%30.18 "HgN/A
8:00 AM52 °FScattered clouds.7 mph77%30.18 "HgN/A
7:30 AM52 °FScattered clouds.6 mph77%30.18 "HgN/A
6:30 AM50 °FScattered clouds.6 mph82%30.15 "HgN/A
6:00 AM48 °FScattered clouds.8 mph87%30.15 "HgN/A
5:30 AM48 °FPassing clouds.7 mph87%30.15 "HgN/A
5:00 AM46 °FClear.8 mph93%30.15 "Hg10 mi
4:30 AM48 °FClear.6 mph87%30.15 "Hg10 mi
4:00 AM48 °FClear.8 mph87%30.12 "Hg10 mi
3:30 AM48 °FClear.7 mph87%30.12 "Hg10 mi
3:00 AM48 °FClear.7 mph87%30.15 "Hg10 mi
Weather by CustomWeather, © 2014

See weather overviewHow to use our weather pages